[Date Prev][Date Next][Thread Prev][Thread Next] - [Date Index][Thread Index][Author Index]
2 Line ISS Keps 8-4
- Subject: [sarex] 2 Line ISS Keps 8-4
- From: "Dave Larsen PhD" <doc@xxxxxxxxxxx>
- Date: Sat, 4 Aug 2001 03:18:36 -0700
ISS
1 25544U 98067A 01216.16504226 .00015382 00000-0 20745-3 0 3002
2 25544 51.6380 206.4767 0011606 335.1665 122.0160 15.57943955154577
----
Via the sarex mailing list at AMSAT.ORG courtesy of AMSAT-NA.
To unsubscribe, send "unsubscribe sarex" to Majordomo@amsat.org
AMSAT Home